Simultaneous Nadir Overpasses (SNOs) Predictions

Prediction of SNOs between NOAA-19 and NPP Satellite Orbit:

Table of predicted SNOs for the next 14.0 days since TLE Epoch: 8/24/2012
Index Date (NOAA-19) Time (NOAA-19) NOAA-19 Lat,Lon Date (NPP) Time (NPP) NPP Lat,Lon Distance(km) Time Diff (sec)
1 09/02/2012 16:23:25 -80.76, 64.85 09/02/2012 16:24:36 -80.76, 64.95 1.69 71
2 09/02/2012 17:14:29 80.70,-126.60 09/02/2012 17:15:18 80.70,-126.63 0.62 49
3 09/02/2012 18:05:27 -80.71, 40.43 09/02/2012 18:06:03 -80.70, 40.57 2.68 36
4 09/02/2012 18:56:32 80.65,-151.38 09/02/2012 18:56:46 80.65,-151.35 0.40 14
5 09/02/2012 19:47:26 -80.59, 17.01 09/02/2012 19:47:28 -80.60, 16.86 2.83 2
6 09/02/2012 20:38:34 80.59,-175.82 09/02/2012 20:38:13 80.59,-175.75 1.40 21
7 09/02/2012 21:29:28
